Flag Weather past 2 weeks in Portland, Oregon, U.S.A.

Now
49 °F

Partly sunny.


Feels Like: 46 °F
Forecast: 47 / 53 °F
Wind: 7 mph from East

Location: Portland International Airport

Current Time: Nov 24, 2014 at 10:18:16 AM

Latest Report: Nov 24, 2014 at 9:53 AM


Visibility: 10 mi

Pressure: 30.38 "Hg

Humidity: 93%

Dew point: 47 °F

Location of PortlandLocation

Historic Weather in Portland — Graph

°F

Portland temperature yesterday

Maximum temperature yesterday: 53 °F (at 10:53 AM)
Minimum temperature yesterday: 47 °F (at 12:53 AM)
Average temperature yesterday: 49 °F

Past Weeks' High & Low Weather Summary

 TemperatureHumidityPressure
High57 °F (Nov 10, 1:53 PM)100% (Nov 10, 5:59 AM)30.53 "Hg (Nov 10, 5:59 AM)
Low28 °F (Nov 15, 5:53 AM)27% (Nov 15, 1:53 PM)29.42 "Hg (Nov 21, 6:53 PM)
Average41 °F66%30.12 "Hg
* Reported Nov 9 8:53 AM — Nov 24 8:53 AM, Portland, Weather by CustomWeather, © 2014

Note: Actual official high and low records may vary slightly from our data, if they occured in-between our weather recording intervals... More about our weather records

Advertising

Portland weather history for previous 24 hours

 ConditionsComfort  
Time TempWeatherWind HumidityBarometerVisibility
8:53 AM
Nov 24
49 °FBroken clouds.6 mph97%30.37 "Hg10 mi
8:04 AM47 °FPartly sunny.No wind100%30.38 "Hg10 mi
7:53 AM47 °FPartly sunny.No wind97%30.37 "Hg10 mi
6:53 AM47 °FMostly cloudy.5 mph100%30.37 "Hg10 mi
6:02 AM48 °FMostly cloudy.3 mph100%30.38 "Hg10 mi
5:53 AM48 °FMostly cloudy.3 mph100%30.37 "Hg10 mi
4:53 AM48 °FMostly cloudy.6 mph100%30.37 "Hg9 mi
4:00 AM48 °FFog.3 mph100%30.37 "Hg6 mi
2:53 AM49 °FOvercast.5 mph97%30.37 "Hg10 mi
1:53 AM49 °FOvercast.No wind100%30.38 "Hg8 mi
12:53 AM48 °FFog.No wind100%30.37 "Hg6 mi
11:53 PM
Nov 23
48 °FFog.No wind100%30.37 "Hg3 mi
10:53 PM48 °FFog.No wind100%30.36 "Hg4 mi
10:00 PM49 °FMostly cloudy.3 mph97%30.36 "Hg10 mi
8:53 PM48 °FOvercast.No wind100%30.34 "Hg9 mi
7:53 PM48 °FPartly cloudy.5 mph100%30.34 "Hg10 mi
6:53 PM49 °FPartly cloudy.No wind100%30.31 "Hg10 mi
5:53 PM51 °FOvercast.3 mph92%30.30 "Hg10 mi
4:53 PM50 °FMostly cloudy.6 mph96%30.29 "Hg10 mi
3:53 PM51 °FBroken clouds.5 mph92%30.27 "Hg10 mi
2:53 PM50 °FRain. Fog.5 mph96%30.26 "Hg3 mi
1:53 PM50 °FRain. Fog.No wind93%30.25 "Hg2 mi
12:53 PM51 °FRain. Fog.13 mph86%30.24 "Hg5 mi
11:53 AM53 °FLight rain. Cloudy.16 mph77%30.23 "Hg10 mi
10:53 AM53 °FPartly sunny.22 mph74%30.24 "Hg10 mi
Weather by CustomWeather, © 2014

See weather overviewHow to use our weather pages